Zurück zum Katalog

STARLINK-35050

AktivKommunikationSSO
NORAD 65440·PAYLOAD·🇺🇸 United States

Gestartet Sep 3, 2025 von Vandenberg Space Force Base

Loading…

Nächste Überflüge (nächste 24 Stunden)

TLE

AktuellSource: CelesTrak SupGP

Epoche: Sep 15, 2026, 02:52 UTC

1 65440C 25194G   26258.11993056 -.00018511  00000+0 -57457-3 0  2583
2 65440  97.2848 107.8893 0001973  92.7108  12.6171 15.33450032    17

Verfolge STARLINK-35050 in Echtzeit mit AllMySat

Download on the App Store